Temp
21 21 24 25 24 24 23 22 23 24 25 24 24 23 24 25 25 25 25 25 25 25 25 25 25 25 25 23 22 22 21 21 19 16 16 16 15 14 14 14 14 15 16 16
22 22 22 21 21 21 21 22 23 24 25 24 23 23 24 26 26 26 25 25 25 24 23 21 20 20 20 22 21 21 21 20 20 17 16 16 15 14 15 14 14 15 15 16
21 23 20 20 21 21 22 22 22 22 22 23 24 24 26 28 27 25 22 21 20 19 19 18 18 17 17 17 17 19 19 20 19 18 16 15 15 14 13 14 15 15 15 15
21 21 20 20 21 21 21 21 20 20 20 21 24 21 24 26 26 22 20 19 18 17 17 16 16 15 15 15 14 15 16 18 18 18 16 15 14 14 14 16 15 16 15 14
22 21 19 19 20 20 19 20 19 19 20 20 21 22 26 26 24 22 19 17 16 16 15 15 14 14 14 13 13 14 14 14 16 17 17 15 13 14 13 13 13 14 14 14
20 20 19 19 19 19 19 20 21 21 21 19 23 23 24 25 23 19 18 17 16 15 14 14 14 14 14 13 12 13 13 13 13 15 16 16 14 13 13 12 12 13 13 14
21 20 19 18 19 20 19 19 19 21 19 21 24 21 23 24 19 18 17 16 15 14 13 13 13 13 13 13 12 13 12 12 12 13 14 15 14 13 13 12 12 11 12 13
18 20 18 18 17 16 17 18 18 18 21 21 20 19 23 24 19 18 16 16 15 13 12 12 12 12 12 12 12 12 12 12 12 12 13 13 14 12 11 12 13 11 11 15
16 18 18 18 16 17 18 17 16 15 17 17 19 21 23 23 18 16 15 14 14 13 11 11 11 11 11 11 11 11 11 12 12 12 12 13 13 13 11 11 13 12 10 11
15 13 17 16 16 17 17 16 14 16 14 16 20 19 18 16 14 14 14 13 13 12 11 11 11 10 10 11 10 10 10 11 11 11 11 11 12 12 12 11 11 12 10 10
13 13 15 16 16 15 15 14 14 14 14 14 13 15 18 14 13 13 13 13 12 11 10 10 10 10 10 10 10 10 10 10 10 10 10 10 11 11 11 11 10 11 11 10
12 11 12 13 15 14 13 13 12 10 10 11 10 10 14 14 13 13 13 12 12 11 10 10 10 10 10 10 10 9 9 9 9 9 9 9 10 10 10 11 11 11 11 10
10 12 10 14 13 13 12 12 12 11 10 8 8 9 13 13 13 13 12 12 11 10 10 9 9 10 9 9 9 9 9 9 8 8 8 8 9 9 9 10 11 10 11 10
8 9 10 10 12 12 10 11 11 10 8 9 9 10 11 12 12 12 12 11 10 9 9 9 9 9 9 8 9 9 9 8 7 7 7 8 8 8 9 9 10 10 10 10
9 8 10 11 10 10 9 9 9 9 9 8 9 10 11 12 12 11 10 10 9 9 9 9 9 8 8 8 8 8 8 8 7 6 6 7 7 7 8 9 9 10 10 9
9 7 8 7 8 8 8 9 10 10 10 10 11 11 12 11 11 10 9 9 9 9 9 9 8 7 7 8 8 7 7 8 7 6 6 5 6 6 7 8 8 9 10 9
7 7 7 6 8 8 7 10 11 11 11 10 9 10 11 10 10 9 8 8 8 8 8 8 7 7 7 7 7 7 7 7 7 6 6 5 5 5 6 7 7 8 9 9
7 8 7 6 7 6 11 12 11 11 10 11 10 10 10 9 8 8 8 8 8 7 7 7 7 7 6 6 6 6 7 7 7 7 6 5 5 5 5 6 7 7 8 9
8 7 6 5 7 8 10 11 10 9 8 10 9 8 7 7 7 7 7 7 7 6 6 6 6 6 6 6 6 6 6 6 6 6 5 5 5 4 4 5 6 7 8 8
9 9 7 6 5 4 9 10 9 8 6 8 6 6 6 6 5 7 6 6 6 6 6 6 5 5 5 6 6 5 5 6 6 6 4 4 4 4 4 4 5 6 7 8
9 8 7 7 6 7 10 10 8 4 6 7 6 6 5 5 4 4 5 5 6 5 5 5 5 5 5 5 5 5 5 5 5 3 4 3 3 3 4 4 4 6 7 7
6 6 6 7 6 5 10 9 7 8 7 5 5 5 4 3 3 4 5 5 5 5 5 5 4 4 4 4 4 4 5 4 3 2 2 3 3 3 3 3 4 6 6 7
7 8 7 7 7 8 8 7 7 7 6 5 4 3 3 3 4 4 4 4 4 4 4 4 4 3 3 4 4 3 4 3 1 1 2 3 3 4 4 4 3 5 6 6
8 8 7 7 8 8 7 7 7 5 4 3 3 3 3 3 3 2 3 3 3 3 3 3 3 3 3 2 3 3 3 2 1 1 2 3 4 5 4 3 3 4 6 6
6 6 7 7 7 7 7 6 4 3 3 3 3 3 3 2 2 1 2 3 3 3 3 2 2 2 2 2 2 2 2 1 1 0 1 3 3 4 3 3 3 4 6 6
6 7 7 7 7 6 5 4 2 2 2 1 1 2 2 2 2 2 2 2 2 2 2 1 1 1 1 1 1 1 1 1 1 -1 -0 1 1 2 3 2 1 3 5 5
Height
1533 1534 1524 1518 1521 1520 1521 1521 1515 1504 1499 1500 1498 1493 1483 1479 1479 1477 1477 1477 1478 1479 1480 1480 1480 1479 1479 1481 1484 1486 1487 1489 1491 1491 1492 1492 1491 1493 1495 1498 1500 1502 1505 1509
1532 1528 1526 1529 1529 1527 1523 1519 1512 1500 1495 1498 1494 1486 1477 1469 1468 1472 1474 1475 1477 1479 1480 1480 1480 1479 1477 1480 1482 1483 1483 1485 1486 1485 1486 1487 1487 1487 1488 1491 1493 1495 1498 1501
1531 1524 1530 1530 1526 1523 1517 1516 1510 1509 1503 1497 1487 1477 1464 1457 1461 1470 1478 1482 1485 1487 1488 1488 1486 1485 1484 1482 1480 1480 1479 1480 1482 1482 1484 1486 1486 1485 1483 1482 1483 1485 1490 1493
1527 1526 1529 1527 1524 1520 1519 1515 1516 1514 1512 1506 1490 1496 1474 1462 1464 1477 1484 1488 1492 1494 1494 1494 1492 1489 1487 1485 1482 1477 1474 1475 1475 1477 1476 1477 1476 1474 1470 1470 1473 1477 1482 1485
1524 1525 1529 1528 1523 1524 1522 1517 1516 1513 1509 1504 1493 1496 1463 1460 1471 1478 1488 1492 1496 1498 1497 1496 1493 1491 1488 1483 1480 1476 1472 1468 1467 1467 1466 1466 1467 1471 1472 1469 1467 1469 1473 1477
1528 1528 1530 1529 1527 1525 1522 1515 1504 1496 1501 1510 1474 1481 1468 1464 1473 1485 1492 1494 1496 1497 1498 1496 1493 1490 1485 1481 1477 1473 1469 1464 1460 1458 1459 1458 1457 1461 1465 1463 1461 1462 1464 1469
1523 1523 1529 1531 1525 1520 1520 1518 1512 1496 1509 1492 1468 1482 1472 1462 1482 1492 1496 1496 1498 1499 1497 1495 1490 1486 1481 1477 1473 1469 1466 1460 1456 1451 1449 1449 1448 1451 1456 1458 1456 1455 1455 1459
1534 1525 1529 1532 1534 1533 1527 1526 1526 1521 1496 1485 1487 1488 1469 1466 1481 1490 1496 1498 1497 1497 1496 1491 1488 1483 1478 1473 1469 1466 1463 1454 1450 1447 1442 1440 1442 1441 1444 1449 1450 1447 1446 1450
1543 1529 1528 1531 1536 1535 1522 1527 1531 1529 1513 1506 1484 1467 1459 1461 1475 1484 1490 1492 1493 1492 1494 1492 1488 1482 1474 1470 1466 1461 1455 1450 1445 1439 1435 1433 1433 1433 1433 1439 1443 1441 1442 1444
1550 1551 1530 1531 1535 1530 1529 1533 1536 1525 1524 1503 1470 1476 1478 1484 1493 1491 1489 1489 1488 1487 1485 1484 1483 1477 1471 1467 1462 1456 1453 1446 1439 1435 1431 1427 1425 1426 1426 1430 1434 1432 1436 1438
1559 1553 1534 1530 1531 1531 1533 1531 1532 1531 1528 1518 1509 1484 1478 1493 1500 1501 1499 1496 1493 1491 1490 1486 1480 1474 1468 1462 1457 1453 1449 1443 1436 1429 1425 1421 1419 1419 1419 1420 1424 1427 1430 1432
1564 1559 1547 1536 1532 1533 1535 1533 1540 1546 1538 1529 1532 1493 1502 1500 1502 1498 1494 1491 1489 1489 1487 1483 1476 1470 1464 1458 1455 1451 1446 1439 1434 1424 1419 1416 1412 1413 1412 1412 1415 1420 1423 1427
1567 1553 1550 1525 1535 1537 1537 1538 1539 1541 1542 1530 1536 1505 1506 1500 1495 1493 1488 1487 1487 1485 1482 1477 1471 1465 1460 1455 1449 1444 1440 1434 1428 1421 1414 1412 1408 1406 1405 1405 1409 1414 1417 1420
1572 1562 1557 1548 1539 1541 1541 1540 1540 1540 1535 1522 1516 1504 1501 1495 1492 1488 1485 1485 1485 1482 1477 1473 1466 1461 1456 1452 1445 1438 1432 1426 1420 1418 1410 1410 1404 1402 1399 1400 1403 1407 1411 1413
1567 1558 1551 1547 1546 1545 1540 1538 1535 1531 1525 1520 1506 1503 1495 1490 1487 1486 1486 1484 1481 1477 1471 1465 1461 1457 1453 1447 1440 1434 1429 1423 1417 1410 1406 1402 1399 1397 1395 1395 1396 1400 1404 1408
1566 1562 1557 1554 1549 1545 1537 1529 1524 1521 1515 1505 1497 1489 1490 1486 1486 1485 1485 1482 1477 1471 1465 1460 1457 1451 1445 1441 1436 1431 1426 1419 1414 1408 1401 1398 1394 1389 1390 1389 1390 1392 1397 1402
1565 1559 1557 1546 1539 1537 1529 1511 1511 1508 1506 1503 1495 1490 1489 1486 1484 1483 1482 1478 1470 1465 1460 1456 1451 1445 1438 1434 1430 1426 1421 1414 1408 1402 1397 1394 1391 1387 1388 1385 1384 1384 1390 1396
1558 1556 1555 1549 1543 1532 1507 1510 1508 1502 1498 1497 1490 1488 1487 1485 1485 1478 1479 1473 1467 1462 1457 1452 1445 1438 1432 1427 1422 1418 1414 1408 1403 1397 1393 1388 1386 1381 1377 1377 1377 1377 1384 1388
1554 1555 1553 1551 1536 1518 1510 1506 1506 1504 1496 1494 1490 1491 1490 1486 1482 1470 1474 1469 1465 1460 1452 1447 1440 1433 1424 1420 1414 1409 1404 1400 1394 1391 1387 1381 1375 1369 1367 1366 1371 1373 1378 1383
1548 1549 1551 1544 1543 1531 1502 1506 1505 1503 1496 1493 1497 1494 1489 1484 1479 1467 1465 1461 1456 1452 1447 1440 1433 1425 1418 1411 1407 1400 1396 1390 1384 1380 1375 1369 1367 1363 1360 1361 1364 1368 1372 1378
1539 1537 1538 1532 1528 1517 1504 1502 1505 1510 1495 1494 1490 1489 1484 1481 1477 1468 1461 1455 1450 1444 1437 1432 1425 1418 1411 1404 1399 1392 1387 1383 1376 1371 1368 1362 1356 1351 1353 1352 1358 1361 1366 1373
1544 1541 1533 1523 1523 1516 1503 1504 1506 1497 1492 1491 1487 1483 1479 1474 1468 1462 1455 1449 1444 1436 1428 1423 1417 1409 1403 1398 1391 1384 1378 1374 1371 1363 1357 1351 1344 1342 1343 1343 1344 1352 1359 1366
1534 1530 1526 1526 1514 1507 1506 1503 1497 1493 1488 1485 1483 1478 1473 1467 1459 1453 1446 1440 1434 1429 1421 1416 1410 1401 1394 1391 1386 1377 1369 1364 1361 1354 1345 1340 1335 1330 1331 1332 1337 1343 1352 1359
1524 1524 1518 1514 1503 1503 1498 1495 1490 1488 1485 1481 1476 1472 1467 1461 1454 1447 1439 1430 1425 1419 1413 1407 1400 1393 1386 1382 1377 1372 1363 1356 1349 1344 1337 1328 1328 1324 1323 1326 1332 1333 1344 1353
1523 1522 1512 1505 1499 1492 1491 1490 1488 1484 1479 1474 1469 1465 1459 1453 1446 1439 1430 1420 1415 1409 1402 1398 1392 1385 1378 1374 1368 1363 1357 1348 1341 1334 1331 1324 1321 1320 1320 1325 1329 1331 1341 1349
1514 1509 1504 1494 1494 1492 1485 1485 1484 1478 1473 1468 1462 1455 1449 1443 1434 1427 1418 1412 1406 1399 1393 1388 1383 1377 1370 1365 1359 1354 1350 1341 1334 1328 1323 1321 1319 1318 1319 1324 1328 1328 1342 1350
Wind_Speed
1 6 9 12 12 14 14 15 19 19 18 18 18 20 25 31 29 27 27 25 21 18 16 15 18 20 21 20 25 27 30 33 34 36 38 38 39 37 35 34 32 35 36 34
7 10 7 6 6 8 12 16 19 18 13 19 20 25 28 26 21 9 10 9 10 14 15 21 21 20 17 12 18 24 28 31 35 38 41 41 38 39 38 37 38 38 38 36
9 11 2 6 8 12 14 16 18 18 20 21 19 17 9 12 12 8 24 27 27 24 22 24 24 24 22 19 17 18 23 28 33 35 37 37 32 33 33 39 43 43 40 37
9 3 3 9 13 12 15 6 12 17 15 10 17 10 13 7 10 20 22 25 25 26 23 23 24 24 22 22 22 22 17 23 30 35 39 40 40 41 47 49 49 46 42 39
2 7 11 12 10 8 12 10 15 17 17 18 16 8 3 9 10 14 18 22 23 27 28 27 27 27 25 25 26 24 24 20 24 32 40 44 44 41 36 40 45 46 44 41
13 12 5 9 12 8 11 13 19 20 11 8 12 11 6 5 10 13 13 17 21 29 34 30 29 31 31 31 30 29 27 26 22 28 35 43 48 46 38 36 38 44 46 44
12 1 5 7 11 5 7 15 7 6 6 7 6 9 12 9 17 15 17 23 29 35 35 35 37 39 35 33 35 32 30 31 27 23 32 38 47 47 45 39 37 41 47 48
6 3 2 9 7 8 15 8 6 8 9 16 22 11 8 7 18 15 25 28 32 33 37 42 40 38 37 34 32 30 30 29 29 26 25 32 40 46 47 44 40 41 45 50
6 4 4 12 6 7 6 7 9 11 19 17 11 15 17 6 22 36 40 39 37 36 37 38 36 35 34 33 32 31 32 28 27 27 23 26 32 40 43 44 42 42 39 43
4 9 8 2 7 11 8 6 6 6 7 11 12 20 17 17 28 30 34 42 43 41 45 43 38 36 34 31 31 31 31 30 26 25 23 23 27 34 37 40 42 43 38 39
8 7 4 10 11 12 13 13 8 9 9 9 16 13 13 29 22 28 33 37 38 32 35 39 39 38 35 33 31 32 31 31 27 23 24 22 22 27 31 36 42 40 38 38
4 6 9 17 16 9 8 9 1 4 11 15 16 25 23 21 33 32 34 36 33 33 35 39 41 40 36 32 31 32 32 30 28 24 25 23 20 23 27 32 37 39 38 37
7 2 7 5 5 5 4 8 9 16 15 23 17 17 23 31 29 35 35 34 32 34 37 40 41 38 34 35 38 35 32 30 29 27 24 25 21 21 24 27 33 36 38 37
7 9 12 10 15 17 21 22 21 20 13 21 19 29 26 25 25 31 31 33 34 35 34 39 39 35 35 39 35 34 32 32 34 29 25 25 22 21 21 25 29 35 37 38
4 9 13 16 18 20 23 23 23 24 24 23 26 28 26 24 22 28 33 32 33 36 38 35 35 40 39 37 34 30 30 31 32 34 29 25 24 22 21 24 28 32 36 38
6 9 14 18 19 20 24 23 25 24 25 26 26 27 24 29 31 30 28 34 38 36 34 33 39 43 41 37 35 33 32 31 28 31 32 32 29 22 23 24 26 31 34 37
11 6 8 10 10 19 18 12 12 18 22 21 24 25 24 22 25 28 32 37 38 36 33 39 40 40 40 38 36 34 34 33 31 30 30 35 28 24 25 25 27 31 33 37
11 11 9 13 18 7 2 14 23 21 19 20 24 21 24 19 26 40 35 34 31 37 38 39 38 41 41 39 38 35 33 34 32 30 31 33 31 26 25 24 28 29 32 37
17 12 8 5 12 21 21 15 21 23 22 23 21 15 29 33 32 40 29 30 33 36 39 38 40 43 45 41 37 36 35 37 33 31 31 32 36 31 26 25 29 31 32 36
8 11 10 15 18 15 15 26 22 18 16 12 17 24 31 32 15 16 37 39 41 40 39 40 41 43 42 40 38 37 36 37 35 31 40 40 37 32 31 28 30 32 33 36
8 9 13 13 17 15 19 14 11 11 13 35 39 35 34 20 25 40 40 41 42 43 43 42 41 40 41 39 37 38 37 34 33 40 37 42 40 33 32 30 32 32 33 36
7 8 11 12 14 17 15 20 24 25 34 34 34 34 32 33 36 37 39 40 41 42 43 41 40 42 40 38 37 39 40 33 33 38 41 40 38 32 30 33 31 31 34 35
8 8 11 12 14 31 39 36 38 32 34 30 30 33 32 33 34 37 41 43 44 43 43 41 39 41 42 37 35 39 40 37 35 39 43 40 33 28 26 33 34 33 35 37
14 22 15 18 24 29 36 35 32 26 33 34 30 33 34 35 39 42 44 46 43 44 42 40 39 40 43 40 39 37 38 37 41 42 38 36 25 17 22 29 32 34 37 39
20 23 16 20 27 30 31 30 32 36 32 33 33 34 39 41 41 42 46 46 45 44 41 38 38 41 43 42 40 38 37 39 44 38 31 29 17 16 21 25 36 32 36 39
19 16 12 14 29 27 31 32 31 32 35 35 40 44 45 45 46 44 46 44 43 42 41 41 41 39 43 41 41 38 37 36 38 29 23 21 18 17 20 28 27 26 32 35
Wind_Direction
169 276 263 318 325 305 302 289 287 291 300 298 291 287 288 287 284 280 281 282 288 294 301 307 303 287 267 258 252 247 240 234 228 222 218 217 216 218 222 223 223 230 236 237
245 253 29 347 317 299 290 289 288 294 305 319 301 292 288 282 277 294 309 321 338 355 8 21 9 2 7 294 277 264 254 244 236 228 223 221 221 221 230 223 230 232 235 237
288 320 344 302 301 291 287 287 300 304 313 293 285 290 338 322 201 80 57 53 45 39 29 20 15 10 7 356 336 299 270 255 245 238 234 229 228 225 218 227 232 231 231 234
277 59 311 305 298 312 291 350 307 301 309 306 340 291 321 78 107 73 59 50 37 25 15 6 1 359 357 351 343 335 304 271 254 245 234 230 224 222 225 235 235 232 230 230
281 316 328 306 311 335 290 328 299 289 284 296 281 256 179 85 99 79 56 43 28 16 2 352 349 345 343 343 340 335 330 309 269 249 240 233 230 231 227 224 230 233 229 227
270 290 293 330 307 295 300 292 292 268 263 265 254 221 252 98 44 69 42 18 4 357 350 345 341 339 334 334 336 333 327 323 304 263 250 239 231 228 230 224 221 229 230 226
319 48 78 356 333 282 314 330 302 253 194 250 91 315 258 22 83 58 17 0 353 344 342 337 334 333 332 331 330 328 324 322 318 291 257 247 239 233 229 228 224 220 224 226
333 200 185 30 344 314 304 294 285 293 288 300 323 268 242 86 102 28 354 342 341 344 341 335 330 328 326 326 326 321 317 319 319 308 277 255 245 237 231 230 230 220 221 236
326 240 350 342 335 300 22 286 345 288 278 270 247 259 252 286 360 346 338 340 336 338 336 331 328 321 320 319 322 320 320 315 317 315 298 269 252 241 237 233 233 222 217 226
37 292 277 59 330 253 262 14 304 250 282 283 283 308 297 359 341 333 338 333 331 335 333 329 327 326 325 319 319 321 317 314 315 317 304 282 261 247 239 237 230 222 217 216
324 241 251 267 288 297 292 285 251 270 265 280 299 278 344 334 336 325 315 317 317 331 326 320 321 324 320 319 319 318 317 316 315 318 316 296 272 253 243 237 229 225 218 213
17 307 286 287 302 310 268 248 295 297 282 288 293 273 300 324 312 310 315 315 323 324 317 315 316 316 318 319 316 319 315 311 315 320 320 308 283 260 249 238 230 224 219 213
4 245 304 175 161 133 195 195 272 293 282 271 273 275 298 296 306 313 312 324 323 318 316 317 316 315 315 319 316 314 313 312 314 318 321 315 295 270 253 240 231 224 218 212
269 247 248 267 301 307 291 290 294 285 273 281 272 289 293 301 306 309 318 320 319 318 317 314 312 315 318 316 314 314 312 310 313 314 321 311 308 283 257 243 232 224 218 211
272 274 277 287 298 293 289 290 286 278 278 275 290 284 290 299 311 318 316 319 319 310 312 312 318 317 316 316 315 314 315 310 310 313 319 315 308 293 265 243 233 225 218 211
294 274 302 291 284 278 277 276 275 277 274 274 286 290 298 316 312 311 315 319 315 311 309 316 316 314 314 314 315 319 311 310 307 306 315 312 304 300 272 247 232 224 218 211
285 277 301 286 303 306 289 270 279 303 299 294 292 301 311 306 315 308 312 310 311 314 319 318 313 313 314 313 312 312 312 310 301 304 306 309 304 290 273 248 229 223 217 209
249 265 275 282 300 266 55 322 301 300 303 296 290 301 304 318 310 302 311 309 315 316 314 311 310 310 309 310 310 309 311 309 302 303 305 306 299 286 273 257 235 220 217 207
228 253 278 267 276 283 293 316 330 310 306 297 297 340 322 312 317 298 310 317 315 311 309 309 307 306 306 308 309 307 307 306 299 299 306 305 300 292 278 255 238 218 215 206
255 258 248 272 286 285 320 310 319 324 288 17 329 309 318 317 302 298 314 315 312 310 310 309 307 306 307 307 307 307 305 304 302 300 306 303 297 284 275 249 233 219 209 204
263 266 255 263 270 277 286 316 344 283 302 323 314 312 305 305 299 302 306 307 310 308 308 309 307 305 305 308 307 307 305 304 303 302 302 298 295 283 262 238 222 212 204 201
270 276 276 277 282 288 334 319 306 309 310 308 305 304 299 293 295 299 300 305 306 308 308 308 306 304 306 308 307 305 303 305 304 301 307 300 296 278 254 233 203 206 200 198
268 246 279 277 268 288 297 293 291 297 298 304 308 305 298 295 296 304 306 305 305 306 307 307 305 304 305 307 306 305 305 303 307 308 308 303 295 277 242 218 200 196 196 192
284 290 282 291 282 293 296 295 299 311 307 301 300 301 302 303 305 303 300 299 303 302 303 303 303 303 303 307 305 303 307 301 308 309 309 304 290 260 214 215 201 189 191 187
285 297 285 282 287 292 300 305 308 304 302 303 302 299 303 302 298 298 298 294 299 297 298 299 299 301 302 305 303 305 308 301 308 304 305 298 273 229 206 204 196 187 189 185
266 263 274 287 302 301 300 301 304 301 302 305 305 302 301 299 296 298 297 296 297 296 297 301 297 301 303 303 304 304 308 302 299 306 296 281 254 220 204 193 187 175 184 185